Regional Weather Roundup
Issued by NWS

Home | Current Version | Previous Version | Graphics & Text | Print | Product List | Glossary On
Versions: 1 2 3 4 5 6 7 8 9 10 11 12 13 14 15 16 17 18 19 20 21 22 23 24 25 26 27 28 29 30 31 32 33 34 35 36 37 38 39 40 41 42 43 44 45 46 47 48 49 50
000
ASUS43 KDMX 041907
RWRIA

WEATHER ROUNDUP FOR IOWA
NATIONAL WEATHER SERVICE DES MOINES IA
200 PM CDT FRI SEP 04 2015

NOTE: "FAIR" INDICATES FEW OR NO CLOUDS BELOW 12,000 FEET WITH NO
SIGNIFICANT WEATHER AND/OR OBSTRUCTIONS TO VISIBILITY.

* - THESE STATIONS ARE NOT NWS STATIONS...THUS NOT UNDER NWS
QUALITY CONTROL.  THEY ALSO DO NOT REPORT WEATHER SUCH
AS PRECIPITATION OR FOG.

IAZ001>003-012>014-020>022-031>034-043>046-042000-
   NORTHWEST IOWA

CITY           SKY/WX    TMP DP  RH WIND       PRES   REMARKS
CARROLL *      SUNNY     84  73  70 S12G18    29.92S HX  91
CHEROKEE *     CLOUDY    79  73  83 SE3       29.91R HX  82
DENISON *      SUNNY     81  72  74 VRB6      29.90S HX  84
LE MARS *      DRIZZLE   77  72  83 SE8G14    29.90R
ORANGE CITY *  SUNNY     77  72  83 S8        29.91R
SHELDON *      SUNNY     75  72  88 S7        29.89F
SIOUX CITY     CLOUDY    82  72  71 S15G21    29.87F HX  87
SPENCER        CLOUDY    82  70  66 SE13      29.91F HX  86
STORM LAKE *   SUNNY     79  73  83 S8        29.93S HX  82
$$

IAZ055>058-069>071-079>083-090>094-042000-
   SOUTHWEST IOWA

CITY           SKY/WX    TMP DP  RH WIND       PRES   REMARKS
ATLANTIC *     SUNNY     86  72  62 S13G18    29.92S HX  92
AUDUBON *      SUNNY     84  73  70 S10       29.94S HX  91
CLARINDA *     SUNNY     88  72  58 S14G21    29.94F HX  94
COUNCIL BLFS * SUNNY     84  72  65 S14       29.91F HX  89
CRESTON *      SUNNY     86  72  62 S17       29.97S HX  92
LAMONI         PTSUNNY   88  71  57 S10       29.97F HX  94
RED OAK *      SUNNY     86  72  62 S12G20    29.92S HX  92
SHENANDOAH *   SUNNY     90  70  51 S16G24    29.91F HX  95
$$

IAZ047>049-059>061-072>074-084-042000-
   CENTRAL IOWA

CITY           SKY/WX    TMP DP  RH WIND       PRES   REMARKS
AMES           PTSUNNY   87  72  60 S8        29.94F HX  93
ANKENY *       SUNNY     88  72  58 S8        29.94S HX  94
CHARITON *     SUNNY     88  72  58 S10       29.97F HX  94
DES MOINES     PTSUNNY   90  70  51 S14       29.94F HX  95
GRINNELL*      SUNNY     88  70  55 S12       29.98F HX  92
KNOXVILLE *    SUNNY     86  72  62 S8G16     29.95F HX  92
MARSHALLTOWN   SUNNY     87  73  62 S13       29.95F HX  94
PELLA *        MOSUNNY   88  75  66 S8        29.96F HX  97
PERRY *          N/A     88  72  58 S12       29.94S HX  94
$$

IAZ004>006-015-016-023>025-035-036-042000-
   NORTH CENTRAL IOWA

CITY           SKY/WX    TMP DP  RH WIND       PRES   REMARKS
ALGONA *       SUNNY     86  73  66 S9G16     29.94S HX  93
CLARION *      SUNNY     88  72  58 S10G17    29.94F HX  94
ESTHERVILLE    MOSUNNY   84  72  67 S13       29.92F HX  89
FORT DODGE *   SUNNY     86  72  62 S9        29.94S HX  92
MASON CITY     SUNNY     88  74  63 S13       29.96S HX  96
FOREST CITY *  SUNNY     88  70  55 S14       29.94S HX  92
IOWA FALLS *     N/A     86  72  62 S7        29.96F HX  92
$$

IAZ007>011-017>019-026>030-037>042-050>054-066-042000-
   NORTHEAST IOWA

CITY           SKY/WX    TMP DP  RH WIND       PRES   REMARKS
CEDAR RAPIDS   MOSUNNY   88  72  58 SW7       29.98S HX  94
CHARLES CITY * SUNNY     86  75  70 S9G17     29.97S HX  95
CLINTON *      SUNNY     88  73  62 W3        30.02F HX  96
DECORAH *      MOSUNNY   84  73  70 S9        29.98S HX  91
DUBUQUE        PTSUNNY   86  72  62 S8        30.01F HX  92
MONTICELLO *   MOSUNNY   88  70  55 S10       29.99S HX  92
OELWEIN *      MOSUNNY   86  72  62 S10G16    29.99S HX  92
WATERLOO       SUNNY     89  72  56 S14       29.95S HX  96
$$

IAZ064-065-067-068-078-042000-
   EAST CENTRAL IOWA

CITY           SKY/WX    TMP DP  RH WIND       PRES   REMARKS
DAVENPORT      MOSUNNY   89  71  55 VRB5      29.99F HX  95
IOWA CITY      SUNNY     89  69  51 SW6       29.98F HX  93
MT. PLEASANT * MOSUNNY   95  61  31 SW9       29.98F HX  95
MUSCATINE *    MOSUNNY   93  68  43 SW8       29.98S HX  97
QUAD CITIES    MOSUNNY   91  69  48 CALM      29.98F HX  96
$$

IAZ062-063-075>077-085>089-095>099-042000-
   SOUTHEAST IOWA

CITY           SKY/WX    TMP DP  RH WIND       PRES   REMARKS
BURLINGTON     SUNNY     91  68  46 CALM      29.98F HX  95
FAIRFIELD *    MOSUNNY   93  68  43 VRB6G13   29.98F HX  97
FORT MADISON * SUNNY     90  70  51 CALM      30.00F HX  95
KEOKUK *       MOSUNNY   91  70  49 S7G14     29.98F HX  97
OSKALOOSA *      N/A     91  66  43 SW9       29.98F HX  94
CENTERVILLE *  SUNNY     86  72  62 S7        30.00F HX  92
OTTUMWA        MOSUNNY   88  71  57 S5        29.96F HX  94
WASHINGTON *     N/A    N/A N/A N/A MISG        N/A
$$

ABBREVIATIONS USED IN REMARKS
   TC - TEMPERATURES IN CELSIUS
  WCI - WIND CHILL INDEX
   HX - HEAT INDEX
  VSB - VISIBILITY
$$




USA.gov is the U.S. government's official web portal to all federal, state and local government web resources and services.